User: anonymous   Login
Location: Unspecified
(0.0000°N, 0.0000°E)
Time: 10:16:11
(UTC+00:00)
Language:

CORVUS BC1 - Orbit

View from above orbital plane
View from above orbital plane
View from above satellite
View from above satellite

Ground track
Ground track

The orbit data is extracted from the following two-line orbital elements,

1 42847U 17042Y   19082.18183552  .00000292  00000-0  34042-4 0  9992
2 42847  97.5759 339.7153 0009129 356.4641   3.6512 14.92035704 91967
Epoch (UTC): 23 March 2019 04:21:50
Eccentricity: 0.0009129
inclination: 97.5759°
perigee height: 585 km
apogee height: 598 km
right ascension of ascending node: 339.7153°
argument of perigee: 356.4641°
revolutions per day: 14.92035704
mean anomaly at epoch: 3.6512°
orbit number at epoch: 9196

The dashed part of the orbit path shows where the satellite is in the earth's shadow,  

DLR